When you browse on this site, cookies collect data to enhance your experience and personalize the content and advertising you see.
Visit our Privacy Policy to learn more. By continuing to use the site, you agree to this use of cookies and data.
  • En España
  • Lista de países
  • Para 7 días
  • Temperatura del agua
  • El tiempo en el mapa
  • Informadores
  • user-avatar
    Iniciar sesión

    Tiempo cada hora York

    Hoy, 17 Septiembre, Martes

    Tiempo Temperatura Precipitaciones Viento Presión Humedad
    00:00 +10°C° 0 mm 3 mps 766 mmHg 84%
    01:00 +9°C° 0 mm 3 mps 766 mmHg 83%
    02:00 +9°C° 0 mm 3 mps 766 mmHg 83%
    03:00 +9°C° 0 mm 3 mps 766 mmHg 83%
    04:00 +9°C° 0 mm 3 mps 766 mmHg 83%
    05:00 +8°C° 0 mm 3 mps 766 mmHg 84%
    06:00 +8°C° 0 mm 3 mps 767 mmHg 84%
    07:00 +9°C° 0 mm 3 mps 767 mmHg 78%
    08:00 +11°C° 0 mm 4 mps 767 mmHg 72%
    09:00 +12°C° 0 mm 4 mps 767 mmHg 66%
    10:00 +13°C° 0 mm 4 mps 768 mmHg 61%
    11:00 +14°C° 0 mm 4 mps 768 mmHg 55%
    12:00 +14°C° 0 mm 4 mps 768 mmHg 50%
    13:00 +14°C° 0 mm 4 mps 768 mmHg 50%
    14:00 +14°C° 0 mm 4 mps 768 mmHg 50%
    15:00 +14°C° 0 mm 3 mps 768 mmHg 49%
    16:00 +13°C° 0 mm 3 mps 768 mmHg 55%
    17:00 +12°C° 0 mm 3 mps 769 mmHg 61%
    18:00 +10°C° 0 mm 3 mps 769 mmHg 67%
    19:00 +10°C° 0 mm 2 mps 769 mmHg 70%
    20:00 +10°C° 0 mm 1 mps 770 mmHg 72%
    21:00 +9°C° 0 mm 1 mps 770 mmHg 75%
    22:00 +9°C° 0 mm 1 mps 770 mmHg 76%
    23:00 +9°C° 0 mm 1 mps 770 mmHg 77%

    Mañana, 18 Septiembre, Miércoles

    Tiempo Temperatura Precipitaciones Viento Presión Humedad
    00:00 +8°C° 0 mm 1 mps 770 mmHg 78%
    01:00 +8°C° 0 mm 1 mps 770 mmHg 78%
    02:00 +7°C° 0 mm 0 mps 770 mmHg 78%
    03:00 +7°C° 0 mm 0 mps 770 mmHg 79%
    04:00 +8°C° 0 mm 1 mps 770 mmHg 79%
    05:00 +8°C° 0 mm 1 mps 770 mmHg 78%
    06:00 +8°C° 0 mm 1 mps 770 mmHg 78%
    07:00 +9°C° 0 mm 1 mps 771 mmHg 74%
    08:00 +11°C° 0 mm 1 mps 771 mmHg 69%
    09:00 +12°C° 0 mm 1 mps 771 mmHg 65%
    10:00 +14°C° 0 mm 2 mps 771 mmHg 61%
    11:00 +15°C° 0 mm 2 mps 771 mmHg 57%
    12:00 +16°C° 0 mm 2 mps 771 mmHg 53%
    13:00 +17°C° 0 mm 2 mps 770 mmHg 53%
    14:00 +18°C° 0 mm 2 mps 770 mmHg 53%
    15:00 +18°C° 0 mm 2 mps 770 mmHg 54%
    16:00 +17°C° 0 mm 2 mps 770 mmHg 61%
    17:00 +16°C° 0 mm 2 mps 770 mmHg 67%
    18:00 +15°C° 0 mm 1 mps 770 mmHg 74%
    19:00 +14°C° 0 mm 1 mps 770 mmHg 77%
    20:00 +13°C° 0 mm 1 mps 771 mmHg 80%
    21:00 +13°C° 0 mm 1 mps 771 mmHg 83%
    22:00 +12°C° 0 mm 1 mps 771 mmHg 84%
    23:00 +12°C° 0 mm 1 mps 771 mmHg 85%

    Pasado mañana, 19 Septiembre, Jueves

    Tiempo Temperatura Precipitaciones Viento Presión Humedad
    00:00 +12°C° 0 mm 1 mps 771 mmHg 86%
    01:00 +12°C° 0 mm 1 mps 771 mmHg 86%
    02:00 +11°C° 0 mm 1 mps 771 mmHg 86%
    03:00 +11°C° 0 mm 1 mps 771 mmHg 86%
    04:00 +11°C° 0 mm 1 mps 771 mmHg 86%
    05:00 +10°C° 0 mm 0 mps 771 mmHg 86%
    06:00 +10°C° 0 mm 0 mps 771 mmHg 86%
    07:00 +13°C° 0 mm 1 mps 771 mmHg 80%
    08:00 +14°C° 0 mm 1 mps 771 mmHg 74%
    09:00 +16°C° 0 mm 1 mps 772 mmHg 68%
    10:00 +18°C° 0 mm 1 mps 772 mmHg 64%
    11:00 +19°C° 0 mm 1 mps 772 mmHg 60%
    12:00 +21°C° 0 mm 1 mps 771 mmHg 56%
    13:00 +21°C° 0 mm 1 mps 771 mmHg 55%
    14:00 +21°C° 0 mm 1 mps 771 mmHg 54%
    15:00 +22°C° 0 mm 1 mps 771 mmHg 54%
    16:00 +21°C° 0 mm 1 mps 771 mmHg 59%
    17:00 +19°C° 0 mm 1 mps 771 mmHg 65%
    18:00 +18°C° 0 mm 1 mps 771 mmHg 71%
    19:00 +16°C° 0 mm 1 mps 771 mmHg 75%
    20:00 +15°C° 0 mm 1 mps 771 mmHg 79%
    21:00 +14°C° 0 mm 1 mps 771 mmHg 82%
    22:00 +14°C° 0 mm 1 mps 771 mmHg 83%
    23:00 +14°C° 0 mm 1 mps 771 mmHg 84%

    20 Septiembre, Viernes

    Tiempo Temperatura Precipitaciones Viento Presión Humedad
    00:00 +13°C° 0 mm 1 mps 770 mmHg 85%
    01:00 +13°C° 0 mm 1 mps 770 mmHg 86%
    02:00 +13°C° 0 mm 1 mps 770 mmHg 87%
    03:00 +13°C° 0 mm 1 mps 770 mmHg 88%
    04:00 +13°C° 0 mm 1 mps 770 mmHg 89%
    05:00 +12°C° 0 mm 1 mps 769 mmHg 89%
    06:00 +12°C° 0 mm 1 mps 769 mmHg 90%
    07:00 +14°C° 0 mm 1 mps 769 mmHg 83%
    08:00 +16°C° 0 mm 2 mps 769 mmHg 77%
    09:00 +17°C° 0 mm 2 mps 769 mmHg 71%
    10:00 +18°C° 0 mm 3 mps 769 mmHg 66%
    11:00 +20°C° 0 mm 3 mps 768 mmHg 61%
    12:00 +21°C° 0 mm 4 mps 768 mmHg 57%
    13:00 +21°C° 0 mm 4 mps 767 mmHg 57%
    14:00 +21°C° 0 mm 4 mps 767 mmHg 57%
    15:00 +21°C° 0 mm 4 mps 766 mmHg 58%
    16:00 +20°C° 0 mm 4 mps 766 mmHg 63%
    17:00 +19°C° 0 mm 4 mps 765 mmHg 69%
    18:00 +17°C° 0 mm 4 mps 765 mmHg 74%
    19:00 +15°C° 0 mm 4 mps 765 mmHg 76%
    20:00 +15°C° 0 mm 4 mps 765 mmHg 79%
    21:00 +14°C° 0 mm 4 mps 764 mmHg 81%
    22:00 +13°C° 0 mm 4 mps 764 mmHg 79%
    23:00 +12°C° 0 mm 4 mps 764 mmHg 78%

    21 Septiembre, Sábado

    Tiempo Temperatura Precipitaciones Viento Presión Humedad
    00:00 +12°C° 0 mm 4 mps 763 mmHg 77%
    01:00 +11°C° 0 mm 4 mps 763 mmHg 79%
    02:00 +11°C° 0 mm 3 mps 762 mmHg 81%
    03:00 +11°C° 0 mm 3 mps 762 mmHg 84%
    04:00 +11°C° 0 mm 3 mps 761 mmHg 84%
    05:00 +11°C° 0 mm 3 mps 760 mmHg 84%
    06:00 +11°C° 0 mm 3 mps 760 mmHg 84%
    07:00 +12°C° 0 mm 4 mps 760 mmHg 76%
    08:00 +14°C° 0 mm 5 mps 759 mmHg 68%
    09:00 +15°C° 0 mm 6 mps 759 mmHg 60%
    10:00 +17°C° 0 mm 6 mps 758 mmHg 56%
    11:00 +19°C° 0 mm 6 mps 758 mmHg 53%
    12:00 +20°C° 0 mm 6 mps 757 mmHg 49%
    13:00 +21°C° 0 mm 6 mps 757 mmHg 48%
    14:00 +21°C° 0 mm 6 mps 756 mmHg 48%
    15:00 +22°C° 0 mm 6 mps 755 mmHg 47%
    16:00 +20°C° 0 mm 5 mps 755 mmHg 52%
    17:00 +19°C° 0 mm 4 mps 755 mmHg 57%
    18:00 +18°C° 0 mm 4 mps 754 mmHg 62%
    19:00 +18°C° 0 mm 4 mps 754 mmHg 64%
    20:00 +17°C° 0 mm 4 mps 754 mmHg 67%
    21:00 +17°C° 0 mm 4 mps 754 mmHg 69%
    22:00 +17°C° 0.3 mm 3 mps 753 mmHg 74%
    23:00 +17°C° 0.3 mm 3 mps 753 mmHg 78%

    22 Septiembre, Domingo

    Tiempo Temperatura Precipitaciones Viento Presión Humedad
    00:00 +17°C° 0.3 mm 3 mps 752 mmHg 82%
    01:00 +17°C° 0.4 mm 3 mps 752 mmHg 85%
    02:00 +17°C° 0.4 mm 3 mps 752 mmHg 88%
    03:00 +17°C° 0.4 mm 4 mps 752 mmHg 90%
    04:00 +17°C° 0 mm 4 mps 752 mmHg 89%
    05:00 +15°C° 0 mm 4 mps 752 mmHg 89%
    06:00 +15°C° 0 mm 5 mps 752 mmHg 88%
    07:00 +16°C° 0.1 mm 5 mps 752 mmHg 87%
    08:00 +16°C° 0.1 mm 5 mps 752 mmHg 86%
    09:00 +17°C° 0.1 mm 5 mps 753 mmHg 85%
    10:00 +19°C° 0.2 mm 5 mps 753 mmHg 77%
    11:00 +19°C° 0.2 mm 5 mps 753 mmHg 68%
    12:00 +20°C° 0.2 mm 6 mps 753 mmHg 60%
    13:00 +20°C° 0.1 mm 6 mps 753 mmHg 58%
    14:00 +20°C° 0.1 mm 6 mps 753 mmHg 56%
    15:00 +20°C° 0.1 mm 6 mps 753 mmHg 54%
    16:00 +19°C° 0 mm 5 mps 754 mmHg 58%
    17:00 +16°C° 0 mm 5 mps 754 mmHg 62%
    18:00 +15°C° 0 mm 4 mps 755 mmHg 67%
    19:00 +14°C° 0 mm 4 mps 755 mmHg 70%
    20:00 +14°C° 0 mm 4 mps 756 mmHg 74%
    21:00 +13°C° 0 mm 3 mps 757 mmHg 78%
    22:00 +13°C° 0 mm 3 mps 757 mmHg 79%
    23:00 +12°C° 0 mm 3 mps 757 mmHg 81%
    Mostrar más